EN

Hourly Weather Ladyshkino

Today, 1 August, Sunday

Time Temperature Precipitation Wind Pressure Humidity
00:00 +15°C° 0 mm 2 mps 738 mmHg 86%
01:00 +15°C° 0 mm 2 mps 738 mmHg 86%
02:00 +15°C° 0 mm 1 mps 738 mmHg 87%
03:00 +15°C° 0 mm 2 mps 738 mmHg 85%
04:00 +15°C° 0 mm 2 mps 738 mmHg 84%
05:00 +16°C° 0 mm 2 mps 738 mmHg 82%
06:00 +17°C° 0 mm 2 mps 738 mmHg 76%
07:00 +19°C° 0 mm 3 mps 738 mmHg 69%
08:00 +21°C° 0 mm 3 mps 738 mmHg 63%
09:00 +21°C° 0.1 mm 4 mps 738 mmHg 66%
10:00 +21°C° 0.1 mm 4 mps 738 mmHg 70%
11:00 +22°C° 0.1 mm 5 mps 738 mmHg 73%
12:00 +23°C° 0.1 mm 5 mps 737 mmHg 70%
13:00 +23°C° 0.1 mm 5 mps 737 mmHg 68%
14:00 +25°C° 0.1 mm 4 mps 737 mmHg 65%
15:00 +25°C° 0.2 mm 4 mps 737 mmHg 67%
16:00 +25°C° 0.2 mm 4 mps 737 mmHg 70%
17:00 +25°C° 0.2 mm 3 mps 737 mmHg 72%
18:00 +22°C° 0.1 mm 3 mps 737 mmHg 76%
19:00 +21°C° 0.1 mm 3 mps 737 mmHg 79%
20:00 +19°C° 0.1 mm 2 mps 737 mmHg 83%
21:00 +18°C° 0 mm 2 mps 737 mmHg 82%
22:00 +17°C° 0 mm 2 mps 737 mmHg 81%
23:00 +16°C° 0 mm 2 mps 737 mmHg 80%

Tomorrow, 2 August, Monday

Time Temperature Precipitation Wind Pressure Humidity
00:00 +16°C° 0 mm 1 mps 737 mmHg 79%
01:00 +16°C° 0 mm 1 mps 738 mmHg 78%
02:00 +16°C° 0 mm 1 mps 738 mmHg 77%
03:00 +16°C° 0 mm 1 mps 738 mmHg 77%
04:00 +16°C° 0 mm 1 mps 737 mmHg 78%
05:00 +16°C° 0 mm 1 mps 737 mmHg 78%
06:00 +18°C° 0 mm 2 mps 737 mmHg 70%
07:00 +20°C° 0 mm 2 mps 737 mmHg 63%
08:00 +23°C° 0 mm 2 mps 737 mmHg 55%
09:00 +24°C° 0.3 mm 2 mps 736 mmHg 62%
10:00 +24°C° 0.3 mm 3 mps 736 mmHg 69%
11:00 +24°C° 0.3 mm 3 mps 736 mmHg 76%
12:00 +22°C° 2.4 mm 3 mps 735 mmHg 82%
13:00 +21°C° 2.4 mm 4 mps 735 mmHg 88%
14:00 +20°C° 2.4 mm 4 mps 734 mmHg 95%
15:00 +21°C° 0.9 mm 4 mps 733 mmHg 94%
16:00 +21°C° 0.9 mm 4 mps 733 mmHg 92%
17:00 +22°C° 0.9 mm 4 mps 732 mmHg 91%
18:00 +21°C° 1.2 mm 3 mps 732 mmHg 93%
19:00 +20°C° 1.2 mm 3 mps 732 mmHg 95%
20:00 +19°C° 1.2 mm 2 mps 732 mmHg 97%
21:00 +18°C° 0.3 mm 2 mps 732 mmHg 97%
22:00 +17°C° 0.3 mm 2 mps 732 mmHg 98%
23:00 +16°C° 0.3 mm 2 mps 733 mmHg 98%

Day after tomorrow, 3 August, Tuesday

Time Temperature Precipitation Wind Pressure Humidity
00:00 +16°C° 0.1 mm 2 mps 733 mmHg 98%
01:00 +16°C° 0.1 mm 2 mps 733 mmHg 98%
02:00 +16°C° 0.1 mm 3 mps 733 mmHg 98%
03:00 +16°C° 0 mm 3 mps 734 mmHg 98%
04:00 +16°C° 0 mm 3 mps 734 mmHg 97%
05:00 +14°C° 0 mm 3 mps 734 mmHg 97%
06:00 +16°C° 0 mm 3 mps 735 mmHg 95%
07:00 +16°C° 0 mm 3 mps 735 mmHg 93%
08:00 +16°C° 0 mm 3 mps 736 mmHg 92%
09:00 +17°C° 0.3 mm 3 mps 736 mmHg 87%
10:00 +18°C° 0.3 mm 3 mps 736 mmHg 83%
11:00 +19°C° 0.3 mm 4 mps 737 mmHg 78%
12:00 +20°C° 0.1 mm 4 mps 737 mmHg 69%
13:00 +21°C° 0.1 mm 4 mps 737 mmHg 59%
14:00 +22°C° 0.1 mm 4 mps 737 mmHg 49%
15:00 +21°C° 0 mm 4 mps 738 mmHg 52%
16:00 +21°C° 0 mm 3 mps 738 mmHg 56%
17:00 +20°C° 0 mm 3 mps 738 mmHg 59%
18:00 +19°C° 0 mm 2 mps 738 mmHg 64%
19:00 +18°C° 0 mm 2 mps 739 mmHg 68%
20:00 +17°C° 0 mm 2 mps 739 mmHg 73%
21:00 +16°C° 0 mm 2 mps 739 mmHg 79%
22:00 +15°C° 0 mm 2 mps 740 mmHg 85%
23:00 +14°C° 0 mm 2 mps 740 mmHg 91%

4 August, Wednesday

Time Temperature Precipitation Wind Pressure Humidity
00:00 +13°C° 0 mm 1 mps 740 mmHg 93%
01:00 +13°C° 0 mm 1 mps 741 mmHg 94%
02:00 +12°C° 0 mm 1 mps 741 mmHg 96%
03:00 +13°C° 0 mm 1 mps 741 mmHg 93%
04:00 +13°C° 0 mm 1 mps 742 mmHg 90%
05:00 +13°C° 0 mm 1 mps 742 mmHg 87%
06:00 +15°C° 0 mm 1 mps 742 mmHg 76%
07:00 +18°C° 0 mm 1 mps 743 mmHg 65%
08:00 +20°C° 0 mm 1 mps 743 mmHg 54%
09:00 +21°C° 0 mm 1 mps 743 mmHg 49%
10:00 +22°C° 0 mm 1 mps 743 mmHg 45%
11:00 +23°C° 0 mm 1 mps 743 mmHg 40%
12:00 +24°C° 0 mm 1 mps 743 mmHg 39%
13:00 +24°C° 0 mm 1 mps 743 mmHg 38%
14:00 +24°C° 0 mm 1 mps 743 mmHg 37%
15:00 +23°C° 0 mm 1 mps 744 mmHg 43%
16:00 +23°C° 0 mm 1 mps 744 mmHg 49%
17:00 +22°C° 0 mm 1 mps 744 mmHg 54%
18:00 +21°C° 0 mm 1 mps 744 mmHg 58%
19:00 +19°C° 0 mm 1 mps 744 mmHg 61%
20:00 +18°C° 0 mm 1 mps 744 mmHg 64%
21:00 +16°C° 0 mm 1 mps 744 mmHg 68%
22:00 +15°C° 0 mm 1 mps 745 mmHg 73%
23:00 +14°C° 0 mm 1 mps 745 mmHg 77%

5 August, Thursday

Time Temperature Precipitation Wind Pressure Humidity
00:00 +13°C° 0 mm 1 mps 745 mmHg 78%
01:00 +13°C° 0 mm 1 mps 745 mmHg 79%
02:00 +13°C° 0 mm 1 mps 745 mmHg 80%
03:00 +13°C° 0 mm 1 mps 745 mmHg 82%
04:00 +13°C° 0 mm 1 mps 745 mmHg 83%
05:00 +13°C° 0 mm 1 mps 745 mmHg 84%
06:00 +15°C° 0 mm 1 mps 745 mmHg 78%
07:00 +17°C° 0 mm 2 mps 745 mmHg 71%
08:00 +19°C° 0 mm 2 mps 745 mmHg 64%
09:00 +19°C° 0.2 mm 2 mps 744 mmHg 68%
10:00 +19°C° 0.2 mm 2 mps 744 mmHg 71%
11:00 +19°C° 0.2 mm 3 mps 744 mmHg 74%
12:00 +18°C° 1.2 mm 2 mps 744 mmHg 81%
13:00 +17°C° 1.2 mm 2 mps 744 mmHg 89%
14:00 +16°C° 1.2 mm 2 mps 744 mmHg 96%
15:00 +15°C° 0.8 mm 2 mps 744 mmHg 96%
16:00 +15°C° 0.8 mm 2 mps 743 mmHg 97%
17:00 +13°C° 0.8 mm 3 mps 743 mmHg 97%
18:00 +13°C° 0.6 mm 3 mps 743 mmHg 97%
19:00 +14°C° 0.6 mm 3 mps 743 mmHg 98%
20:00 +14°C° 0.6 mm 3 mps 742 mmHg 98%
21:00 +14°C° 0 mm 3 mps 742 mmHg 98%
22:00 +14°C° 0 mm 3 mps 742 mmHg 98%
23:00 +14°C° 0 mm 3 mps 741 mmHg 98%

6 August, Friday

Time Temperature Precipitation Wind Pressure Humidity
00:00 +14°C° 0 mm 3 mps 741 mmHg 98%
01:00 +14°C° 0 mm 3 mps 741 mmHg 98%
02:00 +14°C° 0 mm 3 mps 740 mmHg 98%
03:00 +15°C° 0 mm 4 mps 740 mmHg 98%
04:00 +15°C° 0 mm 4 mps 740 mmHg 98%
05:00 +15°C° 0 mm 4 mps 739 mmHg 97%
06:00 +15°C° 0.9 mm 4 mps 739 mmHg 97%
07:00 +15°C° 0.9 mm 5 mps 738 mmHg 98%
08:00 +15°C° 0.9 mm 5 mps 738 mmHg 98%
09:00 +16°C° 0.2 mm 5 mps 737 mmHg 94%
10:00 +17°C° 0.2 mm 5 mps 737 mmHg 91%
11:00 +19°C° 0.2 mm 6 mps 737 mmHg 88%
12:00 +20°C° 0 mm 6 mps 736 mmHg 80%
13:00 +22°C° 0 mm 5 mps 736 mmHg 72%
14:00 +25°C° 0 mm 5 mps 735 mmHg 64%
15:00 +23°C° 0.4 mm 5 mps 735 mmHg 69%
16:00 +23°C° 0.4 mm 5 mps 735 mmHg 73%
17:00 +22°C° 0.4 mm 5 mps 735 mmHg 78%
18:00 +21°C° 1.4 mm 4 mps 735 mmHg 84%
19:00 +20°C° 1.4 mm 3 mps 735 mmHg 90%
20:00 +19°C° 1.4 mm 2 mps 735 mmHg 97%
21:00 +18°C° 0.5 mm 2 mps 736 mmHg 97%
22:00 +17°C° 0.5 mm 2 mps 736 mmHg 98%
23:00 +17°C° 0.5 mm 2 mps 736 mmHg 98%
Show more